owner,sensor,date,latitude,longitude,air_temperature,qcFlag 
LUMCON,ioos:station:LUMCON:101:1,2015-04-15T06:00:00Z,29.2533,-90.6633,23.5,1111122 
LUMCON,ioos:station:LUMCON:101:1,2015-04-15T06:15:00Z,29.2533,-90.6633,23.5,1111122 
LUMCON,ioos:station:LUMCON:101:1,2015-04-15T06:30:00Z,29.2533,-90.6633,23.17,1111122 
LUMCON,ioos:station:LUMCON:101:1,2015-04-15T06:45:00Z,29.2533,-90.6633,23.0,1111122 
LUMCON,ioos:station:LUMCON:101:1,2015-04-15T13:00:00Z,29.2533,-90.6633,26.67,1111122 
LUMCON,ioos:station:LUMCON:101:1,2015-04-15T13:15:00Z,29.2533,-90.6633,26.78,1111122 
LUMCON,ioos:station:LUMCON:101:1,2015-04-15T13:30:00Z,29.2533,-90.6633,26.78,1111122 
LUMCON,ioos:station:LUMCON:101:1,2015-04-15T13:45:00Z,29.2533,-90.6633,26.67,1111122 
LUMCON,ioos:station:LUMCON:101:1,2015-04-16T01:00:00Z,29.2533,-90.6633,23.39,1111122 
LUMCON,ioos:station:LUMCON:101:1,2015-04-16T01:15:00Z,29.2533,-90.6633,23.28,1111122 
LUMCON,ioos:station:LUMCON:101:1,2015-04-16T01:30:00Z,29.2533,-90.6633,23.28,1111122 
LUMCON,ioos:station:LUMCON:101:1,2015-04-16T01:45:00Z,29.2533,-90.6633,23.39,1111122 
LUMCON,ioos:station:LUMCON:101:1,2015-04-16T04:00:00Z,29.2533,-90.6633,23.5,1111122 
LUMCON,ioos:station:LUMCON:101:1,2015-04-16T04:15:00Z,29.2533,-90.6633,23.5,1111122 
LUMCON,ioos:station:LUMCON:101:1,2015-04-16T04:45:00Z,29.2533,-90.6633,23.67,1111122 
LUMCON,ioos:station:LUMCON:101:1,2015-04-16T06:00:00Z,29.2533,-90.6633,24.06,1111122 
LUMCON,ioos:station:LUMCON:101:1,2015-04-16T06:15:00Z,29.2533,-90.6633,24.06,1111122 
LUMCON,ioos:station:LUMCON:101:1,2015-04-16T06:30:00Z,29.2533,-90.6633,24.06,1111122 
LUMCON,ioos:station:LUMCON:101:1,2015-04-16T06:45:00Z,29.2533,-90.6633,24.06,1111122 
LUMCON,ioos:station:LUMCON:101:1,2015-04-16T07:00:00Z,29.2533,-90.6633,24.17,1111122 
LUMCON,ioos:station:LUMCON:101:1,2015-04-16T07:15:00Z,29.2533,-90.6633,24.06,1111122 
LUMCON,ioos:station:LUMCON:101:1,2015-04-16T07:30:00Z,29.2533,-90.6633,24.17,1111122 
LUMCON,ioos:station:LUMCON:101:1,2015-04-16T07:45:00Z,29.2533,-90.6633,24.06,1111122 
LUMCON,ioos:station:LUMCON:101:1,2015-04-16T08:00:00Z,29.2533,-90.6633,23.78,1111122 
LUMCON,ioos:station:LUMCON:101:1,2015-04-16T08:15:00Z,29.2533,-90.6633,23.67,1111122 
LUMCON,ioos:station:LUMCON:101:1,2015-04-16T08:30:00Z,29.2533,-90.6633,23.5,1111122 
LUMCON,ioos:station:LUMCON:101:1,2015-04-16T08:45:00Z,29.2533,-90.6633,23.39,1111122 
LUMCON,ioos:station:LUMCON:101:1,2015-04-16T09:00:00Z,29.2533,-90.6633,23.17,1111122 
LUMCON,ioos:station:LUMCON:101:1,2015-04-16T09:15:00Z,29.2533,-90.6633,23.17,1111122 
LUMCON,ioos:station:LUMCON:101:1,2015-04-16T09:30:00Z,29.2533,-90.6633,23.06,1111122 
LUMCON,ioos:station:LUMCON:101:1,2015-04-16T09:45:00Z,29.2533,-90.6633,23.06,1111122 
LUMCON,ioos:station:LUMCON:101:1,2015-04-16T12:00:00Z,29.2533,-90.6633,23.28,1111122 
LUMCON,ioos:station:LUMCON:101:1,2015-04-16T12:15:00Z,29.2533,-90.6633,23.67,1111122 
LUMCON,ioos:station:LUMCON:101:1,2015-04-16T12:30:00Z,29.2533,-90.6633,23.67,1111122 
LUMCON,ioos:station:LUMCON:101:1,2015-04-16T12:45:00Z,29.2533,-90.6633,23.67,1111122 
LUMCON,ioos:station:LUMCON:101:1,2015-04-16T13:00:00Z,29.2533,-90.6633,23.78,1111122 
LUMCON,ioos:station:LUMCON:101:1,2015-04-16T13:15:00Z,29.2533,-90.6633,24.0,1111122 
LUMCON,ioos:station:LUMCON:101:1,2015-04-16T13:30:00Z,29.2533,-90.6633,23.56,1111122 
LUMCON,ioos:station:LUMCON:101:1,2015-04-16T13:45:00Z,29.2533,-90.6633,24.0,1111122 
LUMCON,ioos:station:LUMCON:101:1,2015-04-16T14:00:00Z,29.2533,-90.6633,24.17,1111122 
LUMCON,ioos:station:LUMCON:101:1,2015-04-16T14:15:00Z,29.2533,-90.6633,24.17,1111122 
LUMCON,ioos:station:LUMCON:101:1,2015-04-16T14:30:00Z,29.2533,-90.6633,24.17,1111122 
LUMCON,ioos:station:LUMCON:101:1,2015-04-16T14:45:00Z,29.2533,-90.6633,24.28,1111122 
LUMCON,ioos:station:LUMCON:101:1,2015-04-16T15:00:00Z,29.2533,-90.6633,24.5,1111122 
LUMCON,ioos:station:LUMCON:101:1,2015-04-16T15:15:00Z,29.2533,-90.6633,24.28,1111122 
LUMCON,ioos:station:LUMCON:101:1,2015-04-16T15:30:00Z,29.2533,-90.6633,24.06,1111122 
LUMCON,ioos:station:LUMCON:101:1,2015-04-16T15:45:00Z,29.2533,-90.6633,24.28,1111122 
LUMCON,ioos:station:LUMCON:101:1,2015-04-16T16:00:00Z,29.2533,-90.6633,24.17,1111122 
LUMCON,ioos:station:LUMCON:101:1,2015-04-16T16:15:00Z,29.2533,-90.6633,24.5,1111122 
LUMCON,ioos:station:LUMCON:101:1,2015-04-16T16:30:00Z,29.2533,-90.6633,24.5,1111122 
LUMCON,ioos:station:LUMCON:101:1,2015-04-16T16:45:00Z,29.2533,-90.6633,24.5,1111122 
LUMCON,ioos:station:LUMCON:101:1,2015-04-16T17:00:00Z,29.2533,-90.6633,24.5,1111122 
LUMCON,ioos:station:LUMCON:101:1,2015-04-16T17:15:00Z,29.2533,-90.6633,24.5,1111122 
LUMCON,ioos:station:LUMCON:101:1,2015-04-16T17:30:00Z,29.2533,-90.6633,24.28,1111122 
LUMCON,ioos:station:LUMCON:101:1,2015-04-16T17:45:00Z,29.2533,-90.6633,24.28,1111122 
LUMCON,ioos:station:LUMCON:101:1,2015-04-16T18:00:00Z,29.2533,-90.6633,24.06,1111122 
LUMCON,ioos:station:LUMCON:101:1,2015-04-16T18:15:00Z,29.2533,-90.6633,24.0,1111122 
LUMCON,ioos:station:LUMCON:101:1,2015-04-16T18:30:00Z,29.2533,-90.6633,24.06,1111122 
LUMCON,ioos:station:LUMCON:101:1,2015-04-16T18:45:00Z,29.2533,-90.6633,23.89,1111122 
LUMCON,ioos:station:LUMCON:101:1,2015-04-16T19:00:00Z,29.2533,-90.6633,23.56,1111122 
LUMCON,ioos:station:LUMCON:101:1,2015-04-16T19:15:00Z,29.2533,-90.6633,23.28,1111122 
LUMCON,ioos:station:LUMCON:101:1,2015-04-16T19:30:00Z,29.2533,-90.6633,23.28,1111122 
LUMCON,ioos:station:LUMCON:101:1,2015-04-16T19:45:00Z,29.2533,-90.6633,23.06,1111122 
LUMCON,ioos:station:LUMCON:101:1,2015-04-16T20:00:00Z,29.2533,-90.6633,22.78,1111122 
LUMCON,ioos:station:LUMCON:101:1,2015-04-16T20:15:00Z,29.2533,-90.6633,22.5,1111122 
LUMCON,ioos:station:LUMCON:101:1,2015-04-16T20:45:00Z,29.2533,-90.6633,21.89,1111122 
LUMCON,ioos:station:LUMCON:101:1,2015-04-16T21:00:00Z,29.2533,-90.6633,21.39,1111122 
LUMCON,ioos:station:LUMCON:101:1,2015-04-16T21:15:00Z,29.2533,-90.6633,20.89,1111122 
LUMCON,ioos:station:LUMCON:101:1,2015-04-16T21:30:00Z,29.2533,-90.6633,20.56,1111122 
LUMCON,ioos:station:LUMCON:101:1,2015-04-16T21:45:00Z,29.2533,-90.6633,20.39,1111122 
LUMCON,ioos:station:LUMCON:101:1,2015-04-16T22:00:00Z,29.2533,-90.6633,20.06,1111122 
LUMCON,ioos:station:LUMCON:101:1,2015-04-16T22:15:00Z,29.2533,-90.6633,20.17,1111122 
LUMCON,ioos:station:LUMCON:101:1,2015-04-16T22:30:00Z,29.2533,-90.6633,20.17,1111122 
LUMCON,ioos:station:LUMCON:101:1,2015-04-16T22:45:00Z,29.2533,-90.6633,20.06,1111122 
LUMCON,ioos:station:LUMCON:101:1,2015-04-16T23:00:00Z,29.2533,-90.6633,20.39,1111122 
LUMCON,ioos:station:LUMCON:101:1,2015-04-16T23:15:00Z,29.2533,-90.6633,20.28,1111122 
LUMCON,ioos:station:LUMCON:101:1,2015-04-16T23:30:00Z,29.2533,-90.6633,20.39,1111122 
LUMCON,ioos:station:LUMCON:101:1,2015-04-16T23:45:00Z,29.2533,-90.6633,20.67,1111122 
LUMCON,ioos:station:LUMCON:101:1,2015-04-17T00:00:00Z,29.2533,-90.6633,20.67,1111122 
LUMCON,ioos:station:LUMCON:101:1,2015-04-17T00:15:00Z,29.2533,-90.6633,20.67,1111122 
LUMCON,ioos:station:LUMCON:101:1,2015-04-17T00:30:00Z,29.2533,-90.6633,20.5,1111122 
LUMCON,ioos:station:LUMCON:101:1,2015-04-17T00:45:00Z,29.2533,-90.6633,20.67,1111122 
LUMCON,ioos:station:LUMCON:101:1,2015-04-17T01:00:00Z,29.2533,-90.6633,20.5,1111122 
LUMCON,ioos:station:LUMCON:101:1,2015-04-17T01:15:00Z,29.2533,-90.6633,20.06,1111122 
LUMCON,ioos:station:LUMCON:101:1,2015-04-17T01:30:00Z,29.2533,-90.6633,20.0,1111122 
LUMCON,ioos:station:LUMCON:101:1,2015-04-17T01:45:00Z,29.2533,-90.6633,20.06,1111122 
LUMCON,ioos:station:LUMCON:101:1,2015-04-17T02:00:00Z,29.2533,-90.6633,20.06,1111122 
LUMCON,ioos:station:LUMCON:101:1,2015-04-17T02:15:00Z,29.2533,-90.6633,20.28,1111122 
LUMCON,ioos:station:LUMCON:101:1,2015-04-17T02:30:00Z,29.2533,-90.6633,20.67,1111122 
LUMCON,ioos:station:LUMCON:101:1,2015-04-17T02:45:00Z,29.2533,-90.6633,20.67,1111122 
LUMCON,ioos:station:LUMCON:101:1,2015-04-17T03:00:00Z,29.2533,-90.6633,20.89,1111122 
LUMCON,ioos:station:LUMCON:101:1,2015-04-17T03:15:00Z,29.2533,-90.6633,21.06,1111122 
LUMCON,ioos:station:LUMCON:101:1,2015-04-17T03:30:00Z,29.2533,-90.6633,21.39,1111122 
LUMCON,ioos:station:LUMCON:101:1,2015-04-17T03:45:00Z,29.2533,-90.6633,21.39,1111122 
LUMCON,ioos:station:LUMCON:101:1,2015-04-17T04:00:00Z,29.2533,-90.6633,21.17,1111122 
LUMCON,ioos:station:LUMCON:101:1,2015-04-17T04:15:00Z,29.2533,-90.6633,21.28,1111122 
LUMCON,ioos:station:LUMCON:101:1,2015-04-17T04:30:00Z,29.2533,-90.6633,21.06,1111122 
LUMCON,ioos:station:LUMCON:101:1,2015-04-17T04:45:00Z,29.2533,-90.6633,21.28,1111122 
LUMCON,ioos:station:LUMCON:101:1,2015-04-17T05:00:00Z,29.2533,-90.6633,21.17,1111122 
LUMCON,ioos:station:LUMCON:101:1,2015-04-17T05:15:00Z,29.2533,-90.6633,21.28,1111122 
LUMCON,ioos:station:LUMCON:101:1,2015-04-17T05:30:00Z,29.2533,-90.6633,21.39,1111122 
LUMCON,ioos:station:LUMCON:101:1,2015-04-17T05:45:00Z,29.2533,-90.6633,21.39,1111122 
LUMCON,ioos:station:LUMCON:101:1,2015-04-17T06:00:00Z,29.2533,-90.6633,21.39,1111122 
LUMCON,ioos:station:LUMCON:101:1,2015-04-17T06:15:00Z,29.2533,-90.6633,20.89,1111122 
LUMCON,ioos:station:LUMCON:101:1,2015-04-17T06:30:00Z,29.2533,-90.6633,20.78,1111122 
LUMCON,ioos:station:LUMCON:101:1,2015-04-17T06:45:00Z,29.2533,-90.6633,20.78,1111122 
LUMCON,ioos:station:LUMCON:101:1,2015-04-17T07:00:00Z,29.2533,-90.6633,20.67,1111122 
LUMCON,ioos:station:LUMCON:101:1,2015-04-17T07:15:00Z,29.2533,-90.6633,20.67,1111122 
LUMCON,ioos:station:LUMCON:101:1,2015-04-17T07:30:00Z,29.2533,-90.6633,20.78,1111122 
LUMCON,ioos:station:LUMCON:101:1,2015-04-17T07:45:00Z,29.2533,-90.6633,21.0,1111122 
LUMCON,ioos:station:LUMCON:101:1,2015-04-17T08:00:00Z,29.2533,-90.6633,21.06,1111122 
LUMCON,ioos:station:LUMCON:101:1,2015-04-17T08:15:00Z,29.2533,-90.6633,21.17,1111122 
LUMCON,ioos:station:LUMCON:101:1,2015-04-17T08:30:00Z,29.2533,-90.6633,21.17,1111122 
LUMCON,ioos:station:LUMCON:101:1,2015-04-17T09:00:00Z,29.2533,-90.6633,21.56,1111122 
LUMCON,ioos:station:LUMCON:101:1,2015-04-17T09:15:00Z,29.2533,-90.6633,21.78,1111122 
LUMCON,ioos:station:LUMCON:101:1,2015-04-17T09:30:00Z,29.2533,-90.6633,22.06,1111122 
LUMCON,ioos:station:LUMCON:101:1,2015-04-17T09:45:00Z,29.2533,-90.6633,22.39,1111122 
LUMCON,ioos:station:LUMCON:101:1,2015-04-17T10:00:00Z,29.2533,-90.6633,22.39,1111122 
LUMCON,ioos:station:LUMCON:101:1,2015-04-17T10:15:00Z,29.2533,-90.6633,22.67,1111122 
LUMCON,ioos:station:LUMCON:101:1,2015-04-17T10:30:00Z,29.2533,-90.6633,23.0,1111122 
LUMCON,ioos:station:LUMCON:101:1,2015-04-17T10:45:00Z,29.2533,-90.6633,23.06,1111122 
LUMCON,ioos:station:LUMCON:101:1,2015-04-17T11:00:00Z,29.2533,-90.6633,23.39,1111122 
LUMCON,ioos:station:LUMCON:101:1,2015-04-17T11:15:00Z,29.2533,-90.6633,23.5,1111122 
LUMCON,ioos:station:LUMCON:101:1,2015-04-17T11:30:00Z,29.2533,-90.6633,23.56,1111122 
LUMCON,ioos:station:LUMCON:101:1,2015-04-17T11:45:00Z,29.2533,-90.6633,23.67,1111122 
LUMCON,ioos:station:LUMCON:101:1,2015-04-17T12:00:00Z,29.2533,-90.6633,23.67,1111122 
LUMCON,ioos:station:LUMCON:101:1,2015-04-17T12:15:00Z,29.2533,-90.6633,23.67,1111122 
LUMCON,ioos:station:LUMCON:101:1,2015-04-17T12:30:00Z,29.2533,-90.6633,23.56,1111122 
LUMCON,ioos:station:LUMCON:101:1,2015-04-17T12:45:00Z,29.2533,-90.6633,23.67,1111122 
LUMCON,ioos:station:LUMCON:101:1,2015-04-17T13:00:00Z,29.2533,-90.6633,23.89,1111122 
LUMCON,ioos:station:LUMCON:101:1,2015-04-17T13:15:00Z,29.2533,-90.6633,24.06,1111122 
LUMCON,ioos:station:LUMCON:101:1,2015-04-17T13:30:00Z,29.2533,-90.6633,24.5,1111122 
LUMCON,ioos:station:LUMCON:101:1,2015-04-17T13:45:00Z,29.2533,-90.6633,24.67,1111122 
LUMCON,ioos:station:LUMCON:101:1,2015-04-17T14:00:00Z,29.2533,-90.6633,25.0,1111122 
LUMCON,ioos:station:LUMCON:101:1,2015-04-17T14:15:00Z,29.2533,-90.6633,25.06,1111122 
LUMCON,ioos:station:LUMCON:101:1,2015-04-17T14:30:00Z,29.2533,-90.6633,25.5,1111122 
LUMCON,ioos:station:LUMCON:101:1,2015-04-17T14:45:00Z,29.2533,-90.6633,26.0,1111122 
LUMCON,ioos:station:LUMCON:101:1,2015-04-17T15:00:00Z,29.2533,-90.6633,26.0,1111122 
LUMCON,ioos:station:LUMCON:101:1,2015-04-17T15:15:00Z,29.2533,-90.6633,26.06,1111122 
LUMCON,ioos:station:LUMCON:101:1,2015-04-17T15:30:00Z,29.2533,-90.6633,26.28,1111122 
LUMCON,ioos:station:LUMCON:101:1,2015-04-17T15:45:00Z,29.2533,-90.6633,26.5,1111122 
LUMCON,ioos:station:LUMCON:101:1,2015-04-17T16:00:00Z,29.2533,-90.6633,26.78,1111122 
LUMCON,ioos:station:LUMCON:101:1,2015-04-17T16:15:00Z,29.2533,-90.6633,26.67,1111122 
LUMCON,ioos:station:LUMCON:101:1,2015-04-17T16:30:00Z,29.2533,-90.6633,26.78,1111122 
LUMCON,ioos:station:LUMCON:101:1,2015-04-17T16:45:00Z,29.2533,-90.6633,26.56,1111122 
LUMCON,ioos:station:LUMCON:101:1,2015-04-17T17:00:00Z,29.2533,-90.6633,26.78,1111122 
LUMCON,ioos:station:LUMCON:101:1,2015-04-17T17:15:00Z,29.2533,-90.6633,26.67,1111122 
LUMCON,ioos:station:LUMCON:101:1,2015-04-17T17:30:00Z,29.2533,-90.6633,26.67,1111122 
LUMCON,ioos:station:LUMCON:101:1,2015-04-17T17:45:00Z,29.2533,-90.6633,27.0,1111122 
LUMCON,ioos:station:LUMCON:101:1,2015-04-17T18:00:00Z,29.2533,-90.6633,25.06,1111122 
LUMCON,ioos:station:LUMCON:101:1,2015-04-17T18:15:00Z,29.2533,-90.6633,25.17,1111122 
LUMCON,ioos:station:LUMCON:101:1,2015-04-17T18:30:00Z,29.2533,-90.6633,25.39,1111122 
LUMCON,ioos:station:LUMCON:101:1,2015-04-17T18:45:00Z,29.2533,-90.6633,25.28,1111122 
LUMCON,ioos:station:LUMCON:101:1,2015-04-17T19:00:00Z,29.2533,-90.6633,25.0,1111122 
LUMCON,ioos:station:LUMCON:101:1,2015-04-17T19:15:00Z,29.2533,-90.6633,24.78,1111122 
LUMCON,ioos:station:LUMCON:101:1,2015-04-17T19:30:00Z,29.2533,-90.6633,24.78,1111122 
LUMCON,ioos:station:LUMCON:101:1,2015-04-17T19:45:00Z,29.2533,-90.6633,24.78,1111122 
LUMCON,ioos:station:LUMCON:101:1,2015-04-17T20:00:00Z,29.2533,-90.6633,24.67,1111122 
LUMCON,ioos:station:LUMCON:101:1,2015-04-17T20:15:00Z,29.2533,-90.6633,24.56,1111122 
LUMCON,ioos:station:LUMCON:101:1,2015-04-17T20:30:00Z,29.2533,-90.6633,24.5,1111122 
LUMCON,ioos:station:LUMCON:101:1,2015-04-17T20:45:00Z,29.2533,-90.6633,24.5,1111122 
LUMCON,ioos:station:LUMCON:101:1,2015-04-17T21:00:00Z,29.2533,-90.6633,24.39,1111122 
LUMCON,ioos:station:LUMCON:101:1,2015-04-17T21:15:00Z,29.2533,-90.6633,24.39,1111122 
LUMCON,ioos:station:LUMCON:101:1,2015-04-17T21:30:00Z,29.2533,-90.6633,24.39,1111122 
LUMCON,ioos:station:LUMCON:101:1,2015-04-17T21:45:00Z,29.2533,-90.6633,24.5,1111122 
LUMCON,ioos:station:LUMCON:101:1,2015-04-17T22:00:00Z,29.2533,-90.6633,24.56,1111122 
LUMCON,ioos:station:LUMCON:101:1,2015-04-17T22:15:00Z,29.2533,-90.6633,24.67,1111122 
LUMCON,ioos:station:LUMCON:101:1,2015-04-17T22:30:00Z,29.2533,-90.6633,24.67,1111122 
LUMCON,ioos:station:LUMCON:101:1,2015-04-17T22:45:00Z,29.2533,-90.6633,24.56,1111122 
LUMCON,ioos:station:LUMCON:101:1,2015-04-17T23:00:00Z,29.2533,-90.6633,24.5,1111122 
LUMCON,ioos:station:LUMCON:101:1,2015-04-17T23:15:00Z,29.2533,-90.6633,24.5,1111122 
LUMCON,ioos:station:LUMCON:101:1,2015-04-17T23:30:00Z,29.2533,-90.6633,24.5,1111122 
LUMCON,ioos:station:LUMCON:101:1,2015-04-17T23:45:00Z,29.2533,-90.6633,24.5,1111122 
LUMCON,ioos:station:LUMCON:101:1,2015-04-18T00:00:00Z,29.2533,-90.6633,24.5,1111122 
LUMCON,ioos:station:LUMCON:101:1,2015-04-18T00:15:00Z,29.2533,-90.6633,24.5,1111122 
LUMCON,ioos:station:LUMCON:101:1,2015-04-18T00:30:00Z,29.2533,-90.6633,24.5,1111122 
LUMCON,ioos:station:LUMCON:101:1,2015-04-18T00:45:00Z,29.2533,-90.6633,24.39,1111122 
LUMCON,ioos:station:LUMCON:101:1,2015-04-18T01:00:00Z,29.2533,-90.6633,24.28,1111122 
LUMCON,ioos:station:LUMCON:101:1,2015-04-18T01:15:00Z,29.2533,-90.6633,24.17,1111122 
LUMCON,ioos:station:LUMCON:101:1,2015-04-18T01:30:00Z,29.2533,-90.6633,24.17,1111122 
LUMCON,ioos:station:LUMCON:101:1,2015-04-18T01:45:00Z,29.2533,-90.6633,24.17,1111122 
LUMCON,ioos:station:LUMCON:101:1,2015-04-18T02:00:00Z,29.2533,-90.6633,24.0,1111122 
LUMCON,ioos:station:LUMCON:101:1,2015-04-18T02:15:00Z,29.2533,-90.6633,23.89,1111122 
LUMCON,ioos:station:LUMCON:101:1,2015-04-18T02:30:00Z,29.2533,-90.6633,23.67,1111122 
LUMCON,ioos:station:LUMCON:101:1,2015-04-18T02:45:00Z,29.2533,-90.6633,23.67,1111122 
LUMCON,ioos:station:LUMCON:101:1,2015-04-18T03:00:00Z,29.2533,-90.6633,23.0,1111122 
LUMCON,ioos:station:LUMCON:101:1,2015-04-18T03:15:00Z,29.2533,-90.6633,21.28,1111122 
LUMCON,ioos:station:LUMCON:101:1,2015-04-18T03:30:00Z,29.2533,-90.6633,20.28,1111122 
LUMCON,ioos:station:LUMCON:101:1,2015-04-18T03:45:00Z,29.2533,-90.6633,20.5,1111122 
LUMCON,ioos:station:LUMCON:101:1,2015-04-18T04:00:00Z,29.2533,-90.6633,20.67,1111122 
LUMCON,ioos:station:LUMCON:101:1,2015-04-18T04:15:00Z,29.2533,-90.6633,20.78,1111122 
LUMCON,ioos:station:LUMCON:101:1,2015-04-18T04:30:00Z,29.2533,-90.6633,21.17,1111122 
LUMCON,ioos:station:LUMCON:101:1,2015-04-18T04:45:00Z,29.2533,-90.6633,21.06,1111122 
LUMCON,ioos:station:LUMCON:101:1,2015-04-18T05:00:00Z,29.2533,-90.6633,21.39,1111122 
LUMCON,ioos:station:LUMCON:101:1,2015-04-18T05:15:00Z,29.2533,-90.6633,21.28,1111122 
LUMCON,ioos:station:LUMCON:101:1,2015-04-18T05:30:00Z,29.2533,-90.6633,21.39,1111122 
LUMCON,ioos:station:LUMCON:101:1,2015-04-18T05:45:00Z,29.2533,-90.6633,21.39,1111122 
LUMCON,ioos:station:LUMCON:101:1,2015-04-18T06:00:00Z,29.2533,-90.6633,21.5,1111122 
LUMCON,ioos:station:LUMCON:101:1,2015-04-18T06:15:00Z,29.2533,-90.6633,21.67,1111122 
LUMCON,ioos:station:LUMCON:101:1,2015-04-18T06:30:00Z,29.2533,-90.6633,21.78,1111122 
LUMCON,ioos:station:LUMCON:101:1,2015-04-18T06:45:00Z,29.2533,-90.6633,22.0,1111122 
LUMCON,ioos:station:LUMCON:101:1,2015-04-18T07:00:00Z,29.2533,-90.6633,22.0,1111122 
LUMCON,ioos:station:LUMCON:101:1,2015-04-18T07:15:00Z,29.2533,-90.6633,22.0,1111122 
LUMCON,ioos:station:LUMCON:101:1,2015-04-18T07:30:00Z,29.2533,-90.6633,22.0,1111122 
LUMCON,ioos:station:LUMCON:101:1,2015-04-18T07:45:00Z,29.2533,-90.6633,21.78,1111122 
LUMCON,ioos:station:LUMCON:101:1,2015-04-18T08:00:00Z,29.2533,-90.6633,21.67,1111122 
LUMCON,ioos:station:LUMCON:101:1,2015-04-18T08:15:00Z,29.2533,-90.6633,21.5,1111122 
LUMCON,ioos:station:LUMCON:101:1,2015-04-18T08:30:00Z,29.2533,-90.6633,21.67,1111122 
LUMCON,ioos:station:LUMCON:101:1,2015-04-18T08:45:00Z,29.2533,-90.6633,21.28,1111122 
LUMCON,ioos:station:LUMCON:101:1,2015-04-18T09:00:00Z,29.2533,-90.6633,21.39,1111122 
LUMCON,ioos:station:LUMCON:101:1,2015-04-18T09:15:00Z,29.2533,-90.6633,20.89,1111122 
LUMCON,ioos:station:LUMCON:101:1,2015-04-18T09:30:00Z,29.2533,-90.6633,20.67,1111122 
LUMCON,ioos:station:LUMCON:101:1,2015-04-18T09:45:00Z,29.2533,-90.6633,20.56,1111122 
LUMCON,ioos:station:LUMCON:101:1,2015-04-18T10:00:00Z,29.2533,-90.6633,20.78,1111122 
LUMCON,ioos:station:LUMCON:101:1,2015-04-18T10:15:00Z,29.2533,-90.6633,21.0,1111122 
LUMCON,ioos:station:LUMCON:101:1,2015-04-18T10:30:00Z,29.2533,-90.6633,21.06,1111122 
LUMCON,ioos:station:LUMCON:101:1,2015-04-18T10:45:00Z,29.2533,-90.6633,21.28,1111122 
LUMCON,ioos:station:LUMCON:101:1,2015-04-18T11:00:00Z,29.2533,-90.6633,21.56,1111122 
LUMCON,ioos:station:LUMCON:101:1,2015-04-18T11:15:00Z,29.2533,-90.6633,21.67,1111122 
LUMCON,ioos:station:LUMCON:101:1,2015-04-18T11:30:00Z,29.2533,-90.6633,21.89,1111122 
LUMCON,ioos:station:LUMCON:101:1,2015-04-18T11:45:00Z,29.2533,-90.6633,22.17,1111122 
LUMCON,ioos:station:LUMCON:101:1,2015-04-18T12:00:00Z,29.2533,-90.6633,22.5,1111122 
LUMCON,ioos:station:LUMCON:101:1,2015-04-18T12:15:00Z,29.2533,-90.6633,22.5,1111122 
LUMCON,ioos:station:LUMCON:101:1,2015-04-18T12:30:00Z,29.2533,-90.6633,22.67,1111122 
LUMCON,ioos:station:LUMCON:101:1,2015-04-18T12:45:00Z,29.2533,-90.6633,22.89,1111122 
LUMCON,ioos:station:LUMCON:101:1,2015-04-18T13:00:00Z,29.2533,-90.6633,23.17,1111122 
LUMCON,ioos:station:LUMCON:101:1,2015-04-18T13:15:00Z,29.2533,-90.6633,23.0,1111122 
LUMCON,ioos:station:LUMCON:101:1,2015-04-18T13:30:00Z,29.2533,-90.6633,23.0,1111122 
LUMCON,ioos:station:LUMCON:101:1,2015-04-18T13:45:00Z,29.2533,-90.6633,23.0,1111122 
LUMCON,ioos:station:LUMCON:101:1,2015-04-18T14:00:00Z,29.2533,-90.6633,23.06,1111122 
LUMCON,ioos:station:LUMCON:101:1,2015-04-18T14:15:00Z,29.2533,-90.6633,23.17,1111122 
LUMCON,ioos:station:LUMCON:101:1,2015-04-18T14:30:00Z,29.2533,-90.6633,23.0,1111122 
LUMCON,ioos:station:LUMCON:101:1,2015-04-18T14:45:00Z,29.2533,-90.6633,23.0,1111122 
LUMCON,ioos:station:LUMCON:101:1,2015-04-18T15:00:00Z,29.2533,-90.6633,23.06,1111122 
LUMCON,ioos:station:LUMCON:101:1,2015-04-18T15:15:00Z,29.2533,-90.6633,23.17,1111122 
LUMCON,ioos:station:LUMCON:101:1,2015-04-18T15:30:00Z,29.2533,-90.6633,23.28,1111122 
LUMCON,ioos:station:LUMCON:101:1,2015-04-18T15:45:00Z,29.2533,-90.6633,23.17,1111122 
LUMCON,ioos:station:LUMCON:101:1,2015-04-18T16:00:00Z,29.2533,-90.6633,23.17,1111122 
LUMCON,ioos:station:LUMCON:101:1,2015-04-18T16:15:00Z,29.2533,-90.6633,23.06,1111122 
LUMCON,ioos:station:LUMCON:101:1,2015-04-18T16:30:00Z,29.2533,-90.6633,23.0,1111122 
LUMCON,ioos:station:LUMCON:101:1,2015-04-18T16:45:00Z,29.2533,-90.6633,22.78,1111122 
LUMCON,ioos:station:LUMCON:101:1,2015-04-18T17:00:00Z,29.2533,-90.6633,22.89,1111122 
LUMCON,ioos:station:LUMCON:101:1,2015-04-18T17:15:00Z,29.2533,-90.6633,23.0,1111122 
LUMCON,ioos:station:LUMCON:101:1,2015-04-18T17:30:00Z,29.2533,-90.6633,23.17,1111122 
LUMCON,ioos:station:LUMCON:101:1,2015-04-18T18:00:00Z,29.2533,-90.6633,23.28,1111122 
LUMCON,ioos:station:LUMCON:101:1,2015-04-18T18:15:00Z,29.2533,-90.6633,23.17,1111122 
LUMCON,ioos:station:LUMCON:101:1,2015-04-18T18:30:00Z,29.2533,-90.6633,23.17,1111122 
LUMCON,ioos:station:LUMCON:101:1,2015-04-18T18:45:00Z,29.2533,-90.6633,23.17,1111122 
LUMCON,ioos:station:LUMCON:101:1,2015-04-18T19:00:00Z,29.2533,-90.6633,23.17,1111122 
LUMCON,ioos:station:LUMCON:101:1,2015-04-18T19:15:00Z,29.2533,-90.6633,23.17,1111122 
LUMCON,ioos:station:LUMCON:101:1,2015-04-18T19:30:00Z,29.2533,-90.6633,23.0,1111122 
LUMCON,ioos:station:LUMCON:101:1,2015-04-18T19:45:00Z,29.2533,-90.6633,22.78,1111122 
LUMCON,ioos:station:LUMCON:101:1,2015-04-18T20:00:00Z,29.2533,-90.6633,22.78,1111122 
LUMCON,ioos:station:LUMCON:101:1,2015-04-18T20:15:00Z,29.2533,-90.6633,22.78,1111122 
LUMCON,ioos:station:LUMCON:101:1,2015-04-18T20:30:00Z,29.2533,-90.6633,22.78,1111122 
LUMCON,ioos:station:LUMCON:101:1,2015-04-18T20:45:00Z,29.2533,-90.6633,22.78,1111122 
LUMCON,ioos:station:LUMCON:101:1,2015-04-18T21:00:00Z,29.2533,-90.6633,22.67,1111122 
LUMCON,ioos:station:LUMCON:101:1,2015-04-18T21:30:00Z,29.2533,-90.6633,22.89,1111122 
LUMCON,ioos:station:LUMCON:101:1,2015-04-18T21:45:00Z,29.2533,-90.6633,23.0,1111122 
LUMCON,ioos:station:LUMCON:101:1,2015-04-18T22:00:00Z,29.2533,-90.6633,22.78,1111122 
LUMCON,ioos:station:LUMCON:101:1,2015-04-18T22:15:00Z,29.2533,-90.6633,22.67,1111122 
LUMCON,ioos:station:LUMCON:101:1,2015-04-18T22:30:00Z,29.2533,-90.6633,22.89,1111122 
LUMCON,ioos:station:LUMCON:101:1,2015-04-18T22:45:00Z,29.2533,-90.6633,22.89,1111122 
LUMCON,ioos:station:LUMCON:101:1,2015-04-18T23:00:00Z,29.2533,-90.6633,23.0,1111122 
LUMCON,ioos:station:LUMCON:101:1,2015-04-18T23:15:00Z,29.2533,-90.6633,22.89,1111122 
LUMCON,ioos:station:LUMCON:101:1,2015-04-18T23:30:00Z,29.2533,-90.6633,22.89,1111122 
LUMCON,ioos:station:LUMCON:101:1,2015-04-18T23:45:00Z,29.2533,-90.6633,22.89,1111122 
LUMCON,ioos:station:LUMCON:101:1,2015-04-19T00:00:00Z,29.2533,-90.6633,23.0,1111122 
LUMCON,ioos:station:LUMCON:101:1,2015-04-19T00:15:00Z,29.2533,-90.6633,23.0,1111122 
LUMCON,ioos:station:LUMCON:101:1,2015-04-19T00:30:00Z,29.2533,-90.6633,23.06,1111122 
LUMCON,ioos:station:LUMCON:101:1,2015-04-19T00:45:00Z,29.2533,-90.6633,23.06,1111122 
LUMCON,ioos:station:LUMCON:101:1,2015-04-19T01:00:00Z,29.2533,-90.6633,23.06,1111122 
LUMCON,ioos:station:LUMCON:101:1,2015-04-19T01:15:00Z,29.2533,-90.6633,23.06,1111122 
LUMCON,ioos:station:LUMCON:101:1,2015-04-19T01:30:00Z,29.2533,-90.6633,23.06,1111122 
LUMCON,ioos:station:LUMCON:101:1,2015-04-19T01:45:00Z,29.2533,-90.6633,23.06,1111122 
LUMCON,ioos:station:LUMCON:101:1,2015-04-19T02:00:00Z,29.2533,-90.6633,23.17,1111122 
LUMCON,ioos:station:LUMCON:101:1,2015-04-19T02:15:00Z,29.2533,-90.6633,23.17,1111122 
LUMCON,ioos:station:LUMCON:101:1,2015-04-19T02:30:00Z,29.2533,-90.6633,23.17,1111122 
LUMCON,ioos:station:LUMCON:101:1,2015-04-19T02:45:00Z,29.2533,-90.6633,23.0,1111122 